Minneapolis, MN

3:24 AM CDT on March 28, 2017 (GMT -0500)
Minneapolis-Saint Paul International

Weather History for KMSP - December, 2011

Change the Weather History Date:

Monday, December 19, 2011

  Actual Average Record
Temperature  
Mean Temperature 32 °F 18 °F  
Max Temperature 38 °F 26 °F 52 °F (1923)
Min Temperature 26 °F 11 °F -29 °F (1983)
Degree Days  
Heating Degree Days 33 47  
Month to date heating degree days 737 829  
Since 1 July heating degree days 1998 2448  
Cooling Degree Days 0 0  
Month to date cooling degree days 0 0  
Year to date cooling degree days 1061 753  
Moisture  
Dew Point 21 °F    
Average Humidity 68    
Maximum Humidity 82    
Minimum Humidity 54    
Precipitation  
Precipitation 0.00 in 0.03 in 0.51 in (1968)
Month to date precipitation 0.63 0.74  
Year to date precipitation 26.55 30.19  
Snow  
Snow 0.00 in 0.40 in 6.40 in (1951)
Month to date snowfall 5.2 7.6  
Since 1 July snowfall 8.2 17.5  
Snow Depth 0.00 in    
Sea Level Pressure  
Sea Level Pressure 30.14 in    
Wind  
Wind Speed 10 mph (NNW)    
Max Wind Speed 18 mph    
Max Gust Speed 29 mph    
Visibility 10 miles    
Events      
T = Trace of Precipitation, MM = Missing Value Source: NWS Daily Summary

Daily Weather History Graph

Daily Weather History Graph

Search for Another Location

Airport or City:

Trip Planner

Search our weather history database for the weather conditions in past years. The results will help you decide how hot, cold, wet, or windy it might be!

Date:

Astronomy

Dec. 19, 2011 Rise Set
Actual Time 7:46 AM CST 4:33 PM CST
Civil Twilight 7:12 AM CST 5:07 PM CST
Nautical Twilight 6:35 AM CST 5:44 PM CST
Astronomical Twilight 5:59 AM CST 6:20 PM CST
Moon 1:47 AM CST (12/19) 12:40 PM CST (12/19)
Length of Visible Light 9h 54m
Length of Day
8h 47m
Waning Crescent, 31% of the Moon is Illuminated
Dec 19
Waning Crescent
Dec 24
New
Jan 1
First Quarter
Jan 9
Full
Jan 16
Last Quarter

Hourly Weather History & Observations

Time (CST) Temp. Windchill Dew Point Humidity Pressure Visibility Wind Dir Wind Speed Gust Speed Precip Events Conditions
12:53 AM 35.1 °F 32.2 °F 28.9 °F 78% 29.78 in 10.0 mi WSW 3.5 mph - N/A   Clear
1:53 AM 37.9 °F 30.9 °F 28.9 °F 70% 29.82 in 10.0 mi NW 10.4 mph - N/A   Clear
2:53 AM 36.0 °F 29.0 °F 28.9 °F 76% 29.86 in 10.0 mi NW 9.2 mph - N/A   Clear
3:53 AM 35.6 °F 27.5 °F 28.4 °F 75% 29.88 in 10.0 mi NW 11.5 mph - N/A   Partly Cloudy
4:53 AM 34.0 °F 26.0 °F 28.0 °F 79% 29.94 in 10.0 mi NW 10.4 mph - N/A   Partly Cloudy
5:53 AM 33.8 °F 25.3 °F 28.4 °F 81% 29.95 in 10.0 mi NW 11.5 mph - N/A   Scattered Clouds
6:37 AM 33.8 °F 25.3 °F 26.6 °F 75% 29.98 in 10.0 mi NW 11.5 mph - N/A   Mostly Cloudy
6:53 AM 33.1 °F 23.9 °F 27.0 °F 78% 30.01 in 10.0 mi NW 12.7 mph - N/A   Overcast
7:53 AM 34.0 °F 25.5 °F 26.1 °F 73% 30.06 in 10.0 mi NW 11.5 mph - N/A   Overcast
8:53 AM 33.1 °F 23.4 °F 25.0 °F 72% 30.10 in 10.0 mi NNW 13.8 mph 21.9 mph N/A   Mostly Cloudy
9:53 AM 33.1 °F 23.9 °F 21.9 °F 64% 30.14 in 10.0 mi NNW 12.7 mph 23.0 mph N/A   Mostly Cloudy
10:53 AM 33.1 °F 23.9 °F 21.0 °F 61% 30.18 in 10.0 mi NNW 12.7 mph 20.7 mph N/A   Overcast
11:53 AM 33.1 °F 22.6 °F 21.0 °F 61% 30.20 in 10.0 mi NW 16.1 mph - N/A   Overcast
12:53 PM 32.0 °F 22.1 °F 19.0 °F 59% 30.21 in 10.0 mi North 13.8 mph 23.0 mph N/A   Overcast
1:32 PM 33.8 °F 24.8 °F 19.4 °F 56% 30.17 in 10.0 mi NNW 12.7 mph - N/A   Mostly Cloudy
1:53 PM 34.0 °F 23.8 °F 19.0 °F 54% 30.20 in 10.0 mi North 16.1 mph - N/A   Scattered Clouds
2:53 PM 33.1 °F 24.4 °F 19.0 °F 56% 30.20 in 10.0 mi North 11.5 mph - N/A   Mostly Cloudy
3:53 PM 32.0 °F 24.2 °F 18.0 °F 56% 30.23 in 10.0 mi North 9.2 mph - N/A   Mostly Cloudy
4:53 PM 30.9 °F 25.2 °F 17.1 °F 57% 30.26 in 10.0 mi North 5.8 mph - N/A   Scattered Clouds
5:53 PM 30.0 °F 21.1 °F 17.1 °F 59% 30.28 in 10.0 mi North 10.4 mph - N/A   Mostly Cloudy
6:53 PM 30.0 °F 22.4 °F 17.1 °F 59% 30.31 in 10.0 mi NNE 8.1 mph - N/A   Overcast
7:53 PM 28.4 °F 20.4 °F 15.8 °F 59% 30.28 in 10.0 mi NNE 8.1 mph - N/A   Overcast
8:53 PM 27.0 °F 21.6 °F 16.0 °F 63% 30.29 in 10.0 mi NNW 4.6 mph - N/A   Mostly Cloudy
9:21 PM 26.6 °F 22.6 °F 17.6 °F 69% 30.27 in 10.0 mi Variable 3.5 mph - N/A   Overcast
9:53 PM 28.0 °F 24.2 °F 17.1 °F 63% 30.31 in 10.0 mi Variable 3.5 mph - N/A   Overcast
10:37 PM 28.4 °F 24.6 °F 15.8 °F 59% 30.28 in 10.0 mi ENE 3.5 mph - N/A   Overcast
10:53 PM 28.0 °F 24.2 °F 16.0 °F 61% 30.31 in 10.0 mi NNW 3.5 mph - N/A   Overcast
11:53 PM 26.1 °F 21.9 °F 16.0 °F 66% 30.30 in 10.0 mi NNW 3.5 mph - N/A   Overcast